Regional Weather Roundup
Issued by NWS

Home | Current Version | Previous Version | Text Only | Print | Product List | Glossary Off
Versions: 1 2 3 4 5 6 7 8 9 10 11 12 13 14 15 16 17 18 19 20 21 22 23 24 25 26 27 28 29 30 31 32 33 34 35 36 37 38 39 40 41 42 43 44 45 46 47 48 49 50

000
ASUS43 KBIS 222102
RWRND

NORTH DAKOTA REGIONAL WEATHER ROUNDUP
NATIONAL WEATHER SERVICE BISMARCK ND
400 PM CDT FRI SEP 22 2017

NOTE: "FAIR" INDICATES FEW OR NO CLOUDS BELOW 12,000 FEET WITH NO
SIGNIFICANT WEATHER AND/OR OBSTRUCTIONS TO VISIBILITY.


NDZ001>003-009>011-017-222200-
NORTHWEST NORTH DAKOTA

CITY           SKY/WX    TMP DP  RH WIND       PRES   REMARKS
WILLISTON      CLOUDY    48  40  73 N17       29.99S
MINOT          CLOUDY    50  44  80 NW22G29   29.89S
MINOT AFB      CLOUDY    48  44  83 N17G25    29.89S
$$

NDZ018>021-031>035-040>046-222200-
SOUTHWEST NORTH DAKOTA

CITY           SKY/WX    TMP DP  RH WIND       PRES   REMARKS
BISMARCK       CLOUDY    52  46  80 N16G23    29.82R
DICKINSON      CLOUDY    49  38  65 N17G23    29.91R
GARRISON         N/A     48  44  86 N18G30    29.85F
HETTINGER ARPT CLOUDY    48  39  71 N20       29.91R
$$

NDZ004>008-012>016-024-026-027-054-222200-
NORTHEAST NORTH DAKOTA

CITY           SKY/WX    TMP DP  RH WIND       PRES   REMARKS
GRAND FORKS    CLOUDY    72  63  73 N13       29.68F
GRND FRKS AFB  CLOUDY    68  56  65 N10       29.71S
DEVILS LAKE    CLOUDY    56  48  74 N18       29.79F
$$

NDZ022-023-025-028>030-036>039-047>053-222200-
SOUTHEAST NORTH DAKOTA

CITY           SKY/WX    TMP DP  RH WIND       PRES   REMARKS
FARGO          PTSUNNY   88  72  58 S15G23    29.62F HX  94
JAMESTOWN      CLOUDY    64  55  72 N15       29.69F
$$




USA.gov is the U.S. government's official web portal to all federal, state and local government web resources and services.